FW4441 Weather Reports


Display with metric or nautical units.
time (UTC)temp
F
wind
direction
speed
MPH
gust
MPH
rain 1hr
in
rain 24hr
in
rain mn
in
humidity
%
barometer
mb
20260906221532 60 200 1.0 4.0 0.00 0.17 0.17 90 1014.8
20260906220145 59 172 2.0 4.0 0.00 0.17 0.17 90 1014.9
20260906214607 59 203 1.0 3.0 0.00 0.17 0.17 91 1014.9
20260906213102 58 167 2.0 4.0 0.00 0.17 0.17 92 1014.9
20260906211531 57 141 1.0 3.0 0.00 0.17 0.17 93 1014.9
20260906204530 57 156 1.0 4.0 0.00 0.17 0.17 94 1014.8
20260906203030 56 150 2.0 4.0 0.00 0.17 0.17 95 1014.8
20260906201528 56 157 1.0 3.0 0.00 0.17 0.17 96 1014.8
20260906200031 56 156 1.0 3.0 0.00 0.17 0.17 96 1014.9
20260906193033 55 157 1.0 2.0 0.00 0.17 0.17 96 1014.9
20260906191530 55 178 0.0 2.0 0.00 0.17 0.17 97 1015.0
20260906190029 55 199 0.0 3.0 0.00 0.17 0.17 97 1015.0
20260906184531 55 161 1.0 3.0 0.00 0.17 0.17 97 1015.0
20260906183102 54 162 1.0 3.0 0.00 0.17 0.17 97 1015.1
20260906181607 54 225 0.0 0.0 0.00 0.17 0.17 97 1015.1
20260906180108 54 225 0.0 1.0 0.00 0.17 0.17 97 1015.1
20260906174530 54 225 0.0 1.0 0.00 0.17 0.17 97 1015.0
20260906171646 54 300 0.0 3.0 0.00 0.17 0.17 97 1015.0
20260906170106 54 337 0.0 1.0 0.00 0.17 0.17 97 1015.0
20260906164532 54 343 2.0 4.0 0.00 0.17 0.17 97 1014.9
20260906163032 54 332 2.0 5.0 0.01 0.17 0.17 97 1014.9
20260906161532 54 316 3.0 7.0 0.03 0.17 0.17 97 1014.8
20260906160106 54 285 1.0 4.0 0.05 0.17 0.17 97 1014.8
20260906153031 53 337 1.0 2.0 0.07 0.16 0.14 97 1014.6
20260906151604 53 350 2.0 4.0 0.06 0.14 0.12 97 1014.5
20260906150031 53 22 0.0 2.0 0.05 0.12 0.11 97 1014.3
20260906143105 53 22 1.0 2.0 0.04 0.09 0.08 97 1013.8
20260906140032 53 22 0.0 1.0 0.02 0.07 0.06 97 1013.6
20260906134531 53 22 0.0 2.0 0.01 0.06 0.05 97 1013.5
20260906133030 53 85 1.0 3.0 0.00 0.05 0.05 96 1013.3
20260906131530 53 112 0.0 0.0 0.00 0.05 0.05 96 1013.2
20260906130030 53 112 0.0 1.0 0.00 0.05 0.05 96 1013.2
20260906124531 53 157 0.0 2.0 0.00 0.05 0.05 96 1013.4
20260906123032 53 185 1.0 3.0 0.00 0.05 0.05 96 1013.5
20260906120032 53 36 0.0 2.0 0.00 0.05 0.05 96 1013.5
20260906113032 53 327 0.0 3.0 0.01 0.05 0.05 96 1013.6
20260906110107 53 315 0.0 3.0 0.01 0.05 0.05 95 1013.7
20260906104530 53 330 3.0 4.0 0.02 0.05 0.04 95 1013.9
20260906103029 53 346 1.0 4.0 0.01 0.04 0.04 94 1013.9
20260906101528 53 315 0.0 3.0 0.03 0.04 0.04 94 1014.1
20260906094531 54 157 0.0 2.0 0.03 0.03 0.03 94 1014.0
20260906093101 54 132 0.0 2.0 0.03 0.03 0.01 93 1014.0
20260906090031 53 106 0.0 1.0 0.01 0.01 0.00 92 1013.9
20260906084529 53 111 0.0 2.0 0.00 0.00 0.00 92 1013.9
20260906083030 54 67 0.0 2.0 0.00 0.00 0.00 92 1014.0
20260906081530 54 67 0.0 1.0 0.00 0.00 0.00 92 1013.9
20260906074528 53 118 1.0 4.0 0.00 0.00 0.00 92 1013.8
20260906073028 53 167 0.0 2.0 0.00 0.00 0.00 92 1013.9
20260906071530 53 117 0.0 1.0 0.00 0.00 0.00 92 1014.0
20260906064530 53 131 0.0 2.0 0.00 0.00 0.00 92 1014.2
20260906063028 53 336 0.0 2.0 0.00 0.00 0.00 92 1014.3
20260906061529 53 314 0.0 0.0 0.00 0.00 0.00 91 1014.2
20260906060103 53 292 0.0 2.0 0.00 0.01 0.00 91 1014.4
20260906054531 53 292 0.0 2.0 0.00 0.01 0.00 91 1014.4
20260906053032 54 292 0.0 0.0 0.00 0.01 0.00 90 1014.4
20260906051529 54 292 0.0 0.0 0.00 0.01 0.00 90 1014.4
20260906050031 54 292 1.0 2.0 0.00 0.01 0.00 90 1014.4
20260906044532 54 292 0.0 0.0 0.00 0.01 0.00 89 1014.5
20260906043030 55 292 0.0 0.0 0.00 0.01 0.00 88 1014.5
20260906041532 55 292 0.0 2.0 0.00 0.01 0.00 88 1014.5
20260906040029 55 292 0.0 3.0 0.00 0.01 0.00 87 1014.4
20260906034531 55 272 0.0 2.0 0.00 0.01 0.00 86 1014.2
20260906031528 57 200 0.0 2.0 0.00 0.01 0.00 82 1013.8
20260906030030 59 157 1.0 3.0 0.00 0.01 0.00 80 1013.8
20260906023028 61 137 3.0 5.0 0.00 0.01 0.00 78 1013.7
20260906021532 62 162 3.0 6.0 0.00 0.01 0.00 75 1013.7
20260906020145 63 162 3.0 6.0 0.00 0.01 0.00 72 1013.6
20260906014529 63 158 2.0 5.0 0.00 0.01 0.00 70 1013.6
20260906013105 65 175 2.0 4.0 0.00 0.01 0.00 69 1013.7
20260906011531 67 164 2.0 6.0 0.00 0.01 0.00 68 1013.7
20260906010107 67 183 2.0 4.0 0.00 0.01 0.00 68 1013.9
20260906003032 66 169 4.0 8.0 0.00 0.01 0.00 75 1014.1
20260906001605 63 164 2.0 7.0 0.00 0.01 0.00 78 1014.3
20260906000031 62 147 3.0 7.0 0.00 0.01 0.00 77 1014.4
20260905233031 63 166 4.0 10.0 0.00 0.01 0.00 73 1014.1
20260905231528 65 176 3.0 8.0 0.00 0.01 0.00 70 1014.0
20260905230032 65 161 2.0 4.0 0.00 0.01 0.00 68 1014.0
20260905224530 66 311 0.0 3.0 0.00 0.01 0.00 68 1013.9
20260905223028 66 283 0.0 0.0 0.00 0.01 0.00 68 1013.9